Location: B�rgermoos
(47.6500°N, 9.0667°E)
Time: 00:26:00
(UTC+00:00)

Transit 2A - All Passes

Search period start: 29 July 2021 00:00
Search period end: 08 August 2021 00:00
Orbit: 598 x 960 km, 66.7° (Epoch: 28 July)

Date Brightness Start Highest point End Pass type
(mag) Time Alt. Az. Time Alt. Az. Time Alt. Az.
29 Jul - 05:16:32 10° SSE 05:19:22 17° ESE 05:22:18 10° ENE daylight
29 Jul - 06:57:33 10° SW 07:01:55 63° NW 07:06:37 10° NNE daylight
29 Jul - 08:43:24 10° WNW 08:46:08 15° NNW 08:48:59 10° N daylight
29 Jul - 12:14:38 10° N 12:17:16 14° NNE 12:20:01 10° NE daylight
29 Jul - 13:56:43 10° NNW 14:01:47 43° NE 14:07:19 10° ESE daylight
29 Jul - 15:39:55 10° NW 15:44:59 40° WSW 15:50:30 10° S daylight
30 Jul - 04:44:13 10° ESE 04:45:28 11° ESE 04:46:43 10° E daylight
30 Jul - 06:23:18 10° SSW 06:27:42 89° ESE 06:32:26 10° NE daylight
30 Jul - 08:08:20 10° W 08:11:36 19° NNW 08:15:03 10° NNE daylight
30 Jul - 11:40:49 10° N 11:42:39 12° NNE 11:44:32 10° NE daylight
30 Jul - 13:22:38 10° NNW 13:27:26 33° NE 13:32:38 10° ESE daylight
30 Jul - 15:05:34 10° NW 15:10:52 55° WSW 15:16:41 10° SSE daylight
31 Jul - 05:49:14 10° SSW 05:53:32 61° ESE 05:58:10 10° NE daylight
31 Jul - 07:33:27 10° W 07:37:07 24° NW 07:41:02 10° NNE daylight
31 Jul - 11:07:25 10° N 11:07:59 10° NNE 11:08:34 10° NNE daylight
31 Jul - 12:48:35 10° NNW 12:53:02 26° NE 12:57:49 10° E daylight
31 Jul - 14:31:17 10° NW 14:36:43 76° WSW 14:42:40 10° SSE daylight
31 Jul - 16:16:29 10° WNW 16:19:12 14° WSW 16:22:00 10° SW daylight
01 Aug - 05:15:21 10° S 05:19:27 40° ESE 05:23:49 10° NE daylight
01 Aug - 06:58:43 10° WSW 07:02:42 31° NW 07:07:00 10° NNE daylight
01 Aug - 08:46:29 10° NNW 08:47:34 11° NNW 08:48:39 10° N daylight
01 Aug - 12:14:34 10° NNW 12:18:35 21° NE 12:22:51 10° E daylight
01 Aug - 13:57:05 10° NNW 14:02:31 81° NE 14:08:29 10° SE daylight
01 Aug - 15:41:19 10° WNW 15:45:14 20° WSW 15:49:22 10° SSW daylight
02 Aug - 04:41:43 10° S 04:45:25 27° ESE 04:49:20 10° NE daylight
02 Aug - 06:24:07 10° WSW 06:28:20 42° NW 06:32:55 10° NNE daylight
02 Aug - 08:10:54 10° NW 08:12:56 12° NNW 08:15:01 10° N daylight
02 Aug - 11:40:35 10° N 11:44:04 17° NNE 11:47:45 10° ENE daylight
02 Aug - 13:22:55 10° NNW 13:28:16 61° NE 13:34:08 10° SE daylight
02 Aug - 15:06:35 10° NW 15:11:13 27° WSW 15:16:10 10° SSW daylight
03 Aug - 04:08:24 10° SSE 04:11:27 19° ESE 04:14:37 10° ENE daylight
03 Aug - 05:49:41 10° SW 05:54:03 59° NW 05:58:47 10° NNE daylight
03 Aug - 07:35:39 10° WNW 07:38:20 15° NNW 07:41:09 10° N daylight
03 Aug - 11:06:38 10° N 11:09:30 14° NNE 11:12:30 10° ENE daylight
03 Aug - 12:48:48 10° NNW 12:53:59 46° NE 12:59:38 10° ESE daylight
03 Aug - 14:32:05 10° NW 14:37:09 38° WSW 14:42:38 10° S daylight
04 Aug - 03:35:45 10° SE 03:37:32 12° ESE 03:39:21 10° E daylight
04 Aug - 05:15:24 10° SW 05:19:49 85° NW 05:24:37 10° NE daylight
04 Aug - 07:00:34 10° WNW 07:03:48 18° NNW 07:07:13 10° NNE daylight
04 Aug - 10:32:45 10° N 10:34:54 12° NNE 10:37:06 10° NE daylight
04 Aug - 12:14:43 10° NNW 12:19:38 35° NE 12:24:59 10° ESE daylight
04 Aug - 13:57:42 10° NW 14:03:03 52° WSW 14:08:51 10° SSE daylight
05 Aug - 04:41:17 10° SSW 04:45:39 66° ESE 04:50:21 10° NE daylight
05 Aug - 06:25:39 10° W 06:29:18 23° NW 06:33:13 10° NNE daylight
05 Aug - 09:59:03 10° N 10:00:15 11° NNE 10:01:28 10° NNE daylight
05 Aug - 11:40:40 10° NNW 11:45:15 28° NE 11:50:11 10° E daylight
05 Aug - 13:23:25 10° NW 13:28:53 72° WSW 13:34:54 10° SSE daylight
05 Aug - 15:08:52 10° WNW 15:11:20 13° WSW 15:13:52 10° SW daylight
06 Aug - 04:07:22 10° S 04:11:33 44° ESE 04:16:02 10° NE daylight
06 Aug - 05:50:54 10° WSW 05:54:52 30° NW 05:59:10 10° NNE daylight
06 Aug - 07:38:44 10° NNW 07:39:47 11° NNW 07:40:52 10° N daylight
06 Aug - 11:06:38 10° NNW 11:10:48 22° NE 11:15:15 10° E daylight
06 Aug - 12:49:12 10° NW 12:54:42 86° NE 13:00:44 10° SE daylight
06 Aug - 14:33:34 10° WNW 14:37:23 19° WSW 14:41:22 10° SSW daylight
07 Aug - 03:33:41 10° S 03:37:30 30° ESE 03:41:34 10° NE visible
07 Aug - 05:16:16 10° WSW 05:20:30 40° NW 05:25:05 10° NNE daylight
07 Aug - 07:03:10 10° NW 07:05:09 12° NNW 07:07:12 10° N daylight
07 Aug - 10:32:38 10° NNW 10:36:18 18° NNE 10:40:11 10° ENE daylight
07 Aug - 12:15:02 10° NNW 12:20:28 64° NE 12:26:25 10° SE daylight
07 Aug - 13:58:47 10° NW 14:03:22 26° WSW 14:08:15 10° SSW daylight
